Odi Airport [CLOSED]

Jump to: basic info | weather | comments

Related pages: nearby airports | nearby navaids | notams | map

Basic information (top)

Codes: FAIO
Location: lon -25.549999, lat 27.933001, elev 3,862 ft / 1,177 m msl
Status: closed

Weather (top)

Current conditions for Wonderboom Airport 17nm (31km) ESE (rec'd 2015/03/02 20:00Z):

FAWB 022000Z AUTO 09009KT //// // ////// 19/10 Q1025

Airport forecast for Wonderboom Airport 17nm (31km) ESE (rec'd 2015/02/28 07:00Z):

TAF FAWB 280600Z 2807/2818 04007KT 9999 SCT025 
      BECMG 2809/2811 30008KT SCT040 PROB40 
      TEMPO 2811/2818 5000 TSRA FEW035CB TX27/2812ZTN21/2818Z

Latest comments (top)

Odi Raceway: NOT AN AIRPORT ANYMORE. HAS BEEN A DRAG ... [read]

Runway Details: Runways: 10 & 29 Runway Length = ... [read]

More... (top)

See also NOTAMs and nearby airports and navaids, or visit the Odi Airport page at the main OurAirports website..